TimePDT,TemperatureF,Dew PointF,Humidity,Sea Level PressureIn,VisibilityMPH,Wind Direction,Wind SpeedMPH,Gust SpeedMPH,PrecipitationIn,Events,Conditions,WindDirDegrees,DateUTC
12:53 AM,70.0,54.0,57,29.96,10.0,NNW,9.2,26.5,N/A,,Clear,330,2013-08-07 07:53:00
1:53 AM,68.0,54.0,61,29.97,10.0,NW,8.1,-,N/A,,Clear,310,2013-08-07 08:53:00
2:53 AM,66.0,54.0,65,29.98,10.0,NW,10.4,-,N/A,,Clear,320,2013-08-07 09:53:00
3:53 AM,64.9,54.0,68,29.98,10.0,NW,8.1,-,N/A,,Clear,320,2013-08-07 10:53:00
4:53 AM,62.1,54.0,75,30.00,10.0,NW,4.6,-,N/A,,Clear,320,2013-08-07 11:53:00
5:53 AM,60.1,54.0,80,30.01,10.0,West,4.6,-,N/A,,Clear,270,2013-08-07 12:53:00
6:53 AM,61.0,54.0,78,30.03,10.0,WNW,6.9,-,N/A,,Clear,300,2013-08-07 13:53:00
7:53 AM,63.0,54.0,72,30.04,10.0,NW,6.9,-,N/A,,Clear,310,2013-08-07 14:53:00
8:53 AM,66.0,54.0,65,30.06,10.0,NW,8.1,-,N/A,,Clear,310,2013-08-07 15:53:00
9:53 AM,70.0,55.0,59,30.07,10.0,NW,8.1,-,N/A,,Clear,320,2013-08-07 16:53:00
10:53 AM,73.9,55.0,52,30.07,10.0,NW,5.8,-,N/A,,Clear,310,2013-08-07 17:53:00
11:53 AM,79.0,52.0,39,30.06,10.0,WNW,8.1,-,N/A,,Clear,300,2013-08-07 18:53:00
12:53 PM,82.0,52.0,35,30.04,10.0,Calm,Calm,-,N/A,,Clear,0,2013-08-07 19:53:00
1:53 PM,82.9,50.0,32,30.02,10.0,West,4.6,-,N/A,,Clear,270,2013-08-07 20:53:00
2:53 PM,86.0,50.0,29,30.00,10.0,Variable,4.6,-,N/A,,Clear,0,2013-08-07 21:53:00
3:53 PM,87.1,48.0,26,29.97,10.0,Variable,6.9,-,N/A,,Partly Cloudy,0,2013-08-07 22:53:00
4:53 PM,88.0,46.9,24,29.96,10.0,NNW,9.2,-,N/A,,Clear,330,2013-08-07 23:53:00
5:53 PM,89.1,48.9,25,29.94,10.0,NNW,8.1,-,N/A,,Clear,340,2013-08-08 00:53:00
6:53 PM,86.0,50.0,29,29.94,10.0,NNW,11.5,-,N/A,,Clear,330,2013-08-08 01:53:00
7:53 PM,82.9,51.1,33,29.94,10.0,NW,11.5,-,N/A,,Clear,320,2013-08-08 02:53:00
8:53 PM,80.1,54.0,40,29.96,10.0,NW,11.5,-,N/A,,Clear,320,2013-08-08 03:53:00
9:53 PM,75.9,55.0,48,29.97,10.0,NW,11.5,-,N/A,,Clear,310,2013-08-08 04:53:00
10:53 PM,73.0,54.0,51,29.98,10.0,NW,11.5,-,N/A,,Clear,320,2013-08-08 05:53:00
11:53 PM,70.0,55.0,59,29.97,10.0,NW,11.5,-,N/A,,Clear,320,2013-08-08 06:53:00